Regional Weather Roundup
Issued by NWS

Home | Current Version | Previous Version | Text Only | Print | Product List | Glossary Off
Versions: 1 2 3 4 5 6 7 8 9 10 11 12 13 14 15 16 17 18 19 20 21 22 23 24 25 26 27 28 29 30 31 32 33 34 35 36 37 38 39 40 41 42 43 44 45 46 47 48 49 50

000
ASUS43 KOAX 200902
RWRNE

WEATHER ROUNDUP FOR NEBRASKA
NATIONAL WEATHER SERVICE OMAHA NE
400 AM CDT SUN AUG 20 2017

NOTES: SATELLITE DATA IS BEING USED TO AUGMENT CLOUD COVER ABOVE
       12000 FEET.
       "FAIR" INDICATES FEW OR NO CLOUDS BELOW 12,000 FEET WITH NO
       SIGNIFICANT WEATHER AND/OR OBSTRUCTIONS TO VISIBILITY.


NEZ001>004-019>022-054>056-201000-
NEBRASKA PANHANDLE

CITY           SKY/WX    TMP DP  RH WIND       PRES   REMARKS
SCOTTSBLUFF    CLEAR     58  47  66 NW7       29.95S
ALLIANCE       CLEAR     57  48  72 NW3       29.95S
CHADRON        CLEAR     54  46  74 SW3       29.96S
GORDON         FAIR      61  47  59 N10       29.95R
KIMBALL        CLEAR     57  46  65 W9        30.02R
SIDNEY         CLEAR     55  51  86 SW8       29.98F
$$

NEZ057>060-069>072-079>082-201000-
SOUTHWEST NEBRASKA

CITY           SKY/WX    TMP DP  RH WIND       PRES   REMARKS
NORTH PLATTE   PTCLDY    65  62  90 E8        29.86S
IMPERIAL       CLEAR     68  57  68 NW7       29.88S
LEXINGTON      CLEAR     67  62  82 SE9       29.88S
MCCOOK         CLEAR     71  60  68 W12       29.86S
OGALLALA       CLEAR     61  59  91 W3        29.90R
$$

NEZ005>010-023>029-035>040-094-201000-
NORTH CENTRAL NEBRASKA

CITY           SKY/WX    TMP DP  RH WIND       PRES   REMARKS
VALENTINE      CLEAR     64  57  78 NW5       29.88R
AINSWORTH      CLEAR     65  60  86 S6        29.87R
BROKEN BOW     CLEAR     68  62  81 S7        29.87S
O`NEILL        CLEAR     65  60  84 SE5       29.88R
THEDFORD       CLEAR     59  56  91 CALM      29.89S
$$

NEZ041-046>049-061>064-073>077-083>087-201000-
SOUTH CENTRAL NEBRASKA

CITY           SKY/WX    TMP DP  RH WIND       PRES   REMARKS
GRAND ISLAND   CLOUDY    67  63  87 S10       29.88S
AURORA         PTCLDY    66  61  82 S12       29.89R
HASTINGS       CLEAR     67  60  78 SE15G22   29.91S
HEBRON         CLOUDY    67  63  88 E8G17     29.94F
HOLDREGE       CLEAR     65  62  89 SE9       29.87F
KEARNEY        CLEAR     66  61  84 SE15      29.88F
$$

NEZ011>018-030>034-042>045-201000-
NORTHEAST NEBRASKA

CITY           SKY/WX    TMP DP  RH WIND       PRES   REMARKS
NORFOLK        CLOUDY    70  58  65 SE7       29.85R
ALBION         CLOUDY    68  59  73 S7        29.86S
BLAIR          RAIN      68  65  90 S10       29.91S
COLUMBUS       TSTM      69  60  73 SE10      29.87R
FREMONT        CLOUDY    70  67  91 SE14G21   29.88F
TEKAMAH        LGT RAIN  68  63  84 S13G25    29.84F
WAYNE          CLOUDY    69  62  79 S10       29.85F
$$

NEZ050>053-065>068-078-088>093-201000-
SOUTHEAST NEBRASKA

CITY           SKY/WX    TMP DP  RH WIND       PRES   REMARKS
LINCOLN        TSTM      68  63  84 SE7       29.90F
OMAHA EPPLEY   TSTM      70  65  84 SW6       29.94F
BEATRICE       TSTM      66  64  94 NE9       29.92F
FALLS CITY     LGT RAIN  68  68 100 N9        29.97S
NEBRASKA CITY  CLOUDY    67  67 100 S6G12     29.99F
PLATTSMOUTH    LGT RAIN  67  64  90 SE9       29.96F
$$

NEZ044-045-051>053-067-201000-
OMAHA AREA

CITY           SKY/WX    TMP DP  RH WIND       PRES   REMARKS
OMAHA EPPLEY   TSTM      70  65  84 SW6       29.94F
BLAIR          RAIN      68  65  90 S10       29.91S
FREMONT        CLOUDY    70  67  91 SE14G21   29.88F
MILLARD        DRIZZLE   72  69  91 CALM      29.96R
OFFUTT AFB     LGT RAIN  69  66  92 S7        29.94R
PLATTSMOUTH    LGT RAIN  67  64  90 SE9       29.96F
WAHOO          LGT RAIN  66  64  93 E18       29.87F
$$




USA.gov is the U.S. government's official web portal to all federal, state and local government web resources and services.